Weather reports worldwide

Advertisment
Pescara, Italy (16230): temperature & dewpoint: 24.10.2020 12:00:00 - 30.10.2020 12:00:00 (CET)Pescara, Italy (16230): wind speed: 24.10.2020 12:00:00 - 30.10.2020 12:00:00 (CET)Pescara, Italy (16230): wind direction: 24.10.2020 12:00:00 - 30.10.2020 12:00:00 (CET)Pescara, Italy (16230): reduced air pressure: 24.10.2020 12:00:00 - 30.10.2020 12:00:00 (CET)Pescara, Italy (16230): visibility: 24.10.2020 12:00:00 - 30.10.2020 12:00:00 (CET)Pescara, Italy (16230): precipitation: 24.10.2020 12:00:00 - 30.10.2020 12:00:00 (CET)
Date & Time tt [°C] td [°C] ff [km/h] ff [kn] dd ppp [hPa] vv [km] rr [mm]
30.10.2020 12:00:00 20,0 10,0 4 2 - - 10 -
30.10.2020 11:00:00 19,0 9,0 4 2 - - 10 -
30.10.2020 10:00:00 17,0 9,2 9 5 SW 1024,7 10 0,0
30.10.2020 09:00:00 13,0 9,0 9 5 WSW - 10 -
30.10.2020 08:00:00 9,0 8,0 8 4 W - 10 -
30.10.2020 07:00:00 8,7 7,3 8 4 WSW 1024,1 10 -
30.10.2020 06:00:00 8,0 7,0 9 5 WSW - 10 -
30.10.2020 05:00:00 7,0 7,0 9 5 SSW - 10 -
30.10.2020 04:00:00 7,1 6,2 11 6 SW 1022,9 10 0,0
30.10.2020 03:00:00 8,0 7,0 8 4 SW - 10 -
30.10.2020 02:00:00 8,0 7,0 8 4 SSW - 10 -
30.10.2020 01:00:00 8,5 7,2 8 4 WSW 1022,6 10 -
30.10.2020 00:00:00 8,0 7,0 9 5 SSW - 10 -
29.10.2020 23:00:00 9,0 8,0 9 5 SW - 10 -
29.10.2020 22:00:00 10,5 8,6 8 4 SW 1022,3 10 0,0
29.10.2020 21:00:00 11,0 9,0 5 3 SW - 10 -
29.10.2020 20:00:00 12,0 9,0 4 2 - - 10 -
29.10.2020 19:00:00 12,4 9,0 4 2 - 1020,8 10 -
29.10.2020 18:00:00 14,0 9,0 4 2 NNE - 10 -
29.10.2020 17:00:00 17,0 9,0 9 5 NE - 10 -
29.10.2020 16:00:00 17,8 8,6 8 4 NE 1019,2 10 0,0
29.10.2020 15:00:00 19,0 9,0 13 7 ENE - 10 -
29.10.2020 14:00:00 18,0 9,0 13 7 ENE - 10 -
29.10.2020 13:00:00 18,8 9,0 11 6 ENE 1018,8 10 -
29.10.2020 12:00:00 19,0 8,0 11 6 ENE - 10 -
29.10.2020 11:00:00 17,0 7,0 2 1 - - 10 -
29.10.2020 10:00:00 15,1 7,4 4 2 - 1019,4 10 0,0
29.10.2020 09:00:00 12,0 8,0 4 2 - - 10 -
29.10.2020 08:00:00 9,0 8,0 5 3 SSW - 10 -
29.10.2020 07:00:00 6,7 6,1 8 4 WSW 1019,5 10 -
29.10.2020 06:00:00 7,0 6,0 8 4 WSW - 10 -
29.10.2020 05:00:00 7,0 7,0 8 4 W - 10 -
29.10.2020 04:00:00 6,4 5,9 9 5 SW 1018,4 9 0,0
29.10.2020 03:00:00 7,0 6,0 8 4 SW - 10 -
29.10.2020 02:00:00 8,0 8,0 9 5 WSW - 10 -
29.10.2020 01:00:00 8,8 8,2 9 5 WSW 1018,6 10 -
29.10.2020 00:00:00 9,0 8,0 11 6 SSW - 9 -
28.10.2020 23:00:00 10,0 9,0 9 5 WSW - 10 -
28.10.2020 22:00:00 10,7 9,7 9 5 W 1019,1 10 0,0
28.10.2020 21:00:00 12,0 10,0 8 4 SW - 10 -
28.10.2020 20:00:00 12,0 10,0 11 6 SSW - 10 -
28.10.2020 19:00:00 13,4 11,1 8 4 WSW 1018,3 10 -
28.10.2020 18:00:00 15,0 11,0 4 2 - - 10 -
28.10.2020 17:00:00 17,0 11,0 8 4 NNE - 10 -
28.10.2020 16:00:00 16,9 11,7 15 8 NE 1017,2 10 0,0
28.10.2020 15:00:00 18,0 10,0 15 8 NE - 10 -
28.10.2020 14:00:00 19,0 10,0 15 8 ENE - 10 -
28.10.2020 13:00:00 19,4 8,6 9 5 NE 1016,8 10 -
28.10.2020 12:00:00 18,0 9,0 5 3 - - 10 -
28.10.2020 11:00:00 18,0 10,0 5 3 NNW - 10 -
28.10.2020 10:00:00 16,0 9,8 9 5 SW 1017,8 10 0,0
28.10.2020 09:00:00 13,0 10,0 11 6 WSW - 10 -
28.10.2020 08:00:00 11,0 9,0 9 5 SW - 10 -
28.10.2020 07:00:00 9,8 8,3 11 6 WSW 1016,1 10 -
28.10.2020 06:00:00 10,0 9,0 9 5 WSW - 10 -
28.10.2020 05:00:00 9,0 8,0 9 5 SW - 10 -
28.10.2020 04:00:00 10,0 8,7 8 4 WSW 1015,3 10 0,0
28.10.2020 03:00:00 10,0 9,0 9 5 WSW - 10 -
28.10.2020 02:00:00 11,0 10,0 8 4 W - 10 -
28.10.2020 01:00:00 10,9 9,5 8 4 SW 1015,2 10 -
28.10.2020 00:00:00 12,0 11,0 8 4 WSW - 10 -
27.10.2020 23:00:00 13,0 11,0 8 4 WSW - 10 -
27.10.2020 22:00:00 13,0 10,8 11 6 WSW 1014,9 10 0,0
27.10.2020 21:00:00 14,0 11,0 9 5 WSW - 10 -
27.10.2020 20:00:00 14,0 12,0 13 7 SW - 10 -
27.10.2020 19:00:00 16,3 11,5 9 5 NNE 1013,0 10 -
27.10.2020 18:00:00 16,0 12,0 8 4 NE - 10 -
27.10.2020 17:00:00 17,0 13,0 16 9 NE - 10 -
27.10.2020 16:00:00 18,4 12,4 15 8 NE 1010,5 10 0,0
27.10.2020 15:00:00 19,0 13,0 21 11 NE - 10 -
27.10.2020 14:00:00 20,0 10,0 8 4 N - 10 -
27.10.2020 13:00:00 19,8 7,2 13 7 SW 1009,5 10 -
27.10.2020 12:00:00 19,0 7,0 16 9 SW - 10 -
27.10.2020 11:00:00 19,0 8,0 29 16 SSW - 10 -
27.10.2020 10:00:00 19,1 7,4 13 7 SW 1009,3 10 0,0
27.10.2020 09:00:00 18,0 11,0 5 3 NW - 10 -
27.10.2020 08:00:00 17,0 11,0 8 4 E - 10 -
27.10.2020 07:00:00 17,7 9,9 11 6 WSW 1007,5 10 -
27.10.2020 06:00:00 18,0 10,0 8 4 SSW - 10 -
27.10.2020 05:00:00 19,0 11,0 11 6 SSW - 10 -
27.10.2020 04:00:00 17,4 9,7 11 6 W 1006,6 10 0,0
27.10.2020 03:00:00 15,0 8,0 8 4 SSW - 10 -
27.10.2020 02:00:00 17,0 8,0 5 3 - - 10 -
27.10.2020 01:00:00 17,6 7,2 5 3 NW 1007,1 10 -
27.10.2020 00:00:00 - - - - - - - -
26.10.2020 23:00:00 20,0 7,0 9 5 S - 10 -
26.10.2020 22:00:00 18,1 7,0 5 3 - 1008,8 10 0,0
26.10.2020 21:00:00 21,0 6,0 15 8 W - 10 -
26.10.2020 20:00:00 20,0 7,0 11 6 W - 10 -
26.10.2020 19:00:00 21,0 6,5 11 6 WSW 1009,0 10 -
26.10.2020 18:00:00 21,0 7,0 18 10 WSW - 10 -
26.10.2020 17:00:00 21,0 7,0 13 7 S - 10 -
26.10.2020 16:00:00 22,8 6,0 26 14 SW 1008,5 10 0,0
26.10.2020 15:00:00 24,0 6,0 22 12 SW - 10 -
26.10.2020 14:00:00 25,0 6,0 21 11 SW - 10 -
26.10.2020 13:00:00 24,2 5,7 22 12 SW 1010,2 10 -
26.10.2020 12:00:00 23,0 7,0 16 9 S - 10 -
26.10.2020 11:00:00 22,0 7,0 21 11 SSW - 10 -
26.10.2020 10:00:00 20,8 8,1 15 8 S 1012,8 10 0,0
26.10.2020 09:00:00 17,0 9,0 4 2 - - 10 -
26.10.2020 08:00:00 11,0 10,0 9 5 SW - 10 -
26.10.2020 07:00:00 8,0 7,4 8 4 WSW 1014,0 10 -
26.10.2020 06:00:00 8,0 7,0 9 5 WSW - 10 -
26.10.2020 05:00:00 8,0 8,0 5 3 SSW - 10 -
26.10.2020 04:00:00 7,8 7,4 4 2 - 1014,5 8 0,0
26.10.2020 03:00:00 8,0 7,0 8 4 SW - 7 -
26.10.2020 02:00:00 9,0 8,0 5 3 SW - 7 -
26.10.2020 01:00:00 8,9 8,3 5 3 S 1015,9 10 -
26.10.2020 00:00:00 10,0 9,0 8 4 SW - 10 -
25.10.2020 23:00:00 10,0 9,0 8 4 SW - 10 -
25.10.2020 22:00:00 10,9 10,2 5 3 SSW 1016,2 10 0,0
25.10.2020 21:00:00 12,0 10,0 9 5 SW - 10 -
25.10.2020 20:00:00 13,0 11,0 4 2 - - 10 -
25.10.2020 19:00:00 13,9 11,6 4 2 - 1016,2 10 -
25.10.2020 18:00:00 17,0 12,0 4 2 - - 10 -
25.10.2020 17:00:00 17,0 12,0 8 4 E - 10 -
25.10.2020 16:00:00 18,5 11,3 13 7 E 1015,5 10 0,0
25.10.2020 15:00:00 20,0 11,0 15 8 E - 10 -
25.10.2020 14:00:00 21,0 11,0 15 8 ENE - 9 -
25.10.2020 13:00:00 21,1 9,2 11 6 NE 1015,2 10 -
25.10.2020 12:00:00 20,0 11,0 5 3 - - 10 -
25.10.2020 11:00:00 19,0 10,0 4 2 - - 10 -
25.10.2020 10:00:00 18,0 11,1 2 1 - 1016,4 10 0,0
25.10.2020 09:00:00 14,0 11,0 2 1 - - 10 -
25.10.2020 08:00:00 12,0 11,0 4 2 - - 10 -
25.10.2020 07:00:00 11,5 10,7 5 3 SW 1016,1 10 -
25.10.2020 06:00:00 11,0 11,0 5 3 WSW - 10 -
25.10.2020 05:00:00 11,0 10,0 8 4 SSW - 10 -
25.10.2020 04:00:00 10,3 9,9 5 3 SSW 1015,8 10 0,0
25.10.2020 03:00:00 10,0 10,0 11 6 SSW - 10 -
25.10.2020 02:00:00 10,0 10,0 8 4 SW - 5 -
25.10.2020 01:00:00 - - - - - - - -
25.10.2020 00:00:00 12,0 11,0 8 4 SW - 10 -
24.10.2020 23:00:00 12,0 12,0 5 3 S - 5 -
24.10.2020 22:00:00 11,5 10,9 8 4 SW 1016,7 10 0,0
24.10.2020 21:00:00 13,0 12,0 4 2 - - 9 -
24.10.2020 20:00:00 13,0 13,0 4 2 - - 1,6 -
24.10.2020 19:00:00 13,5 13,0 8 4 W 1016,2 7 -
24.10.2020 18:00:00 15,0 14,0 4 2 - - 10 -
24.10.2020 17:00:00 17,0 14,0 4 2 - - 10 -
24.10.2020 16:00:00 17,6 14,2 5 3 NNE 1016,2 10 0,0
24.10.2020 15:00:00 18,0 15,0 9 5 NE - 10 -
24.10.2020 14:00:00 18,0 15,0 13 7 NNE - 10 -
24.10.2020 13:00:00 16,9 15,5 4 2 - 1015,9 10 -
24.10.2020 12:00:00 16,0 15,0 8 4 WSW - 10 -

tt = temperature
td = dewpoint
ff = wind speed
dd = wind direction
ppp = reduced air pressure
vv = visibility
rr = precipitation

Next stations